Regional Weather Roundup
Issued by NWS Newport/Morehead, NC

Current Version | Previous Version | Text Only | Print | Product List | Glossary Off
Versions: 1 2 3 4 5 6 7 8 9 10 11 12 13 14 15 16 17 18 19 20 21 22 23 24 25 26 27 28 29 30 31 32 33 34 35 36 37 38 39 40 41 42 43 44 45 46 47 48 49 50
000 ASUS42 KMHX 271210 RWRMHX WEATHER ROUNDUP FOR EASTERN NORTH CAROLINA NATIONAL WEATHER SERVICE NEWPORT/MOREHEAD CITY NC 700 AM EST TUE JAN 27 2015 NOTE: "FAIR" INDICATES FEW OR NO CLOUDS BELOW 12,000 FEET WITH NO SIGNIFICANT WEATHER AND/OR OBSTRUCTIONS TO VISIBILITY NCZ015>017-031-032-045>047-102-103-271300- NORTH COAST CITY SKY/WX TMP DP RH WIND PRES REMARKS EDENTON FLURRIES 32 29 87 N9 29.74R ELIZABETH CITY LGT SNOW 31 29 92 NW10 29.73R FOG KITTY HAWK LGT SNOW 32 32 100 NW9 29.68R MANTEO FLURRIES 32 30 93 NW10G17 29.70R $$ NCZ045>047-081-094-103-104-271300- CENTRAL COAST CITY SKY/WX TMP DP RH WIND PRES REMARKS FRISCO CLOUDY 36 33 89 N10G20 29.68R SWANQUARTER NOT AVBL $$ NCZ095-097-098-100-101-271300- SOUTHERN COAST CITY SKY/WX TMP DP RH WIND PRES REMARKS BEAUFORT CLOUDY 39 35 86 N17 29.71R CEDAR ISLAND NOT AVBL JACKSONVILLE CLOUDY 38 29 70 N13 29.74R PINEY ISLAND N/A N/A N/A N/A MISG 29.71R WILMINGTON LGT RAIN 38 36 92 NW13 29.76R FOG $$ NCZ011>013-027>030-043-044-078>080-089-090>093-098-271300- COASTAL PLAIN CITY SKY/WX TMP DP RH WIND PRES REMARKS AHOSKIE FLURRIES 32 24 74 N8 29.77R CLINTON CLOUDY 36 33 89 NW8 29.78R ELIZABETHTOWN CLOUDY 39 31 72 N3 29.78R GOLDSBORO CLOUDY 36 35 98 N10 29.75R GREENVILLE CLOUDY 34 28 80 N9 29.80R HAVELOCK CLOUDY 39 30 70 NW20 29.73R KENANSVILLE CLOUDY 37 34 90 N5 29.77R KINSTON MOCLDY 36 30 80 N6 29.77R NEW BERN CLOUDY 39 29 67 N14G21 29.74R RICHLANDS CLOUDY 37 28 70 N6 29.75R ROCKY MOUNT CLOUDY 34 31 88 N6 29.78R WASHINGTON CLOUDY 34 28 78 NW10 29.76R WHITEVILLE CLOUDY 39 28 63 NW5 29.77R $$ AMZ130-135-150-152-154-156-158-170-250-252-270-ANZ085-086-088-633-658-670-271300- MARINE OBSERVATIONS STATION/POSITION TIME TEMP WIND PRES WAVE SWELL AIR SEA DIR/SP/G HT/PER HT/PER (UTC) (F) (DEG/KT/KT) (MB) (FT/S) (FT/S) CHESAPEAKE LIGHT 1100 32 340/ 23/ 25 1004.9 64 E VA BEACH 1200 37 51 340/ 21/ 27 1003.2 13/11 10/11 DUCK 1200 33 44 340/ 20/ 24 1004.4 2 E DUCK 1200 44 N/A 8/11 5/11 10 NE DUCK 1200 45 N/A 10/11 5/11 OREGON INLET 1200 34 46 320/ 14/ 19 1005.1 13E OREGON INLT 1200 46 N/A 11/11 7/11 HATTERAS CG 1200 38 49 340/ 22/ 24 1005.2 DIAMOND BUOY 1200 42 69 340/ 23/ 29 1003.5 7/ 9 3/ 9 17 S OCRACOKE NOT AVBL CAPE LOOKOUT 1100 41 340/ 15/ 18 1004.8 BEAUFORT LAB 1200 40 50 350/ 9/ 18 1004.8 27 SE WRIGHTSVLE NOT AVBL 5 SE WRIGHTSVLE 1100 43 53 300/ 17/ 19 1006.0 225 S CAPE HAT 1102 60 72 290/ 21/ 29 1002.8 13/ 9 8/11 41 SE CHARLESTON 1200 45 67 300/ 21/ 27 1009.2 8/ 7 2/12 $$

USA.gov is the U.S. government's official web portal to all federal, state and local government web resources and services.